Location: Mentone
(34.5413°N, 85.5351°W)
Time: 15:39:32
(UTC-05:00)

Tiros 1 despin weight - Visible Passes

Search period start: 26 June 2017 00:00
Search period end: 06 July 2017 00:00
Orbit: 595 x 643 km, 48.2° (Epoch: 26 June)

Date Brightness Start Highest point End Pass type
(mag) Time Alt. Az. Time Alt. Az. Time Alt. Az.
26 Jun ? 21:49:17 10° NW 21:53:42 64° NE 21:55:05 40° E visible
26 Jun ? 23:31:49 10° W 23:32:09 11° W 23:32:09 11° W visible
27 Jun ? 20:25:02 10° NW 20:28:51 27° NNE 20:32:38 10° E visible
27 Jun ? 22:06:18 10° WNW 22:10:41 63° SW 22:11:08 58° S visible
28 Jun ? 20:41:49 10° NW 20:46:05 45° NNE 20:50:11 11° ESE visible
28 Jun ? 22:23:42 10° WNW 22:27:15 28° SW 22:27:15 28° SW visible
29 Jun ? 20:58:42 10° NW 21:03:10 87° NE 21:06:21 18° SE visible
29 Jun ? 22:42:10 10° W 22:43:26 13° WSW 22:43:26 13° WSW visible
30 Jun ? 21:15:51 10° WNW 21:20:05 44° SW 21:22:36 21° SSE visible
01 Jul ? 21:33:33 10° W 21:36:50 20° SW 21:38:55 15° SSW visible
03 Jul ? 20:25:29 10° WNW 20:29:26 31° SW 20:33:19 10° SSE visible
04 Jul ? 20:43:44 10° W 20:46:07 14° SW 20:48:30 10° SSW visible
